Home   Weather   Brussels   Past weeks

Flag for Belgium Past Weather in Brussels, Belgium — Yesterday and Last 2 Weeks

55 °F

Partly sunny.

Feels Like: 53 °F
Forecast: 51 / 61 °F
Wind: 9 mph from Southwest

Location: Brussels National Airport

Current Time: Oct 27, 2016 at 3:13:31 PM

Latest Report: Oct 27, 2016 at 2:50 PM

Visibility: 6 mi

Pressure: 30.51 "Hg

Humidity: 82%

Dew Point: 50 °F

Location of BrusselsLocation

Past Weather in Brussels — Graph


Brussels Temperature Yesterday

Maximum temperature yesterday: 57 °F (at 2:50 PM)
Minimum temperature yesterday: 36 °F (at 6:50 AM)
Average temperature yesterday: 47 °F

High & Low Weather Summary for the Past Weeks

High68 °F (Oct 16, 2:50 PM)100% (Oct 13, 4:50 AM)30.54 "Hg (Oct 13, 4:50 AM)
Low32 °F (Oct 23, 4:50 AM)56% (Oct 16, 2:50 PM)29.62 "Hg (Oct 15, 1:50 AM)
Average49 °F87%30.03 "Hg
* Reported Oct 12 1:20 PM — Oct 27 1:50 PM, Brussels, Weather by CustomWeather, © 2016

Note: Actual official high and low records may vary slightly from our data, if they occured in-between our weather recording intervals... More about our weather records


Brussels Weather History for the Previous 24 Hours

Scroll right to see more
Time TempWeatherWind HumidityBarometerVisibility
1:50 PM
Thu, Oct 27
55 °FPartly sunny.9 mph88%30.51 "Hg5 mi
1:20 PM55 °FPartly sunny.9 mph82%30.51 "Hg5 mi
12:50 PM54 °FBroken clouds.8 mph94%30.54 "Hg5 mi
12:20 PM52 °FBroken clouds.9 mph94%30.54 "Hg4 mi
11:50 AM52 °FFog.8 mph94%30.51 "Hg3 mi
11:20 AM52 °FFog.10 mph94%30.51 "Hg2 mi
10:50 AM52 °FFog.9 mph94%30.51 "Hg2 mi
10:20 AM50 °FFog.8 mph100%30.51 "Hg1 mi
9:50 AM50 °FFog.8 mph100%30.51 "Hg1 mi
9:20 AM50 °FFog.7 mph100%30.51 "Hg1 mi
8:50 AM50 °FBroken clouds.8 mph94%30.51 "Hg1 mi
8:20 AM50 °FFog.8 mph94%30.48 "Hg1 mi
7:50 AM50 °FFog.8 mph100%30.48 "Hg1 mi
7:20 AM50 °FFog.8 mph94%30.48 "Hg1 mi
6:50 AM50 °FFog.7 mph94%30.48 "Hg1 mi
6:20 AM50 °FFog.8 mph94%30.48 "Hg1 mi
5:50 AM50 °FFog.10 mph94%30.45 "Hg1 mi
5:20 AM50 °FFog.7 mph94%30.45 "Hg1 mi
4:50 AM50 °FFog.7 mph94%30.45 "Hg1 mi
4:20 AM50 °FFog.9 mph94%30.45 "Hg2 mi
3:50 AM50 °FFog.8 mph88%30.45 "Hg2 mi
3:20 AM50 °FFog.7 mph88%30.45 "Hg2 mi
2:50 AM48 °FFog.8 mph94%30.45 "Hg2 mi
2:20 AM48 °FFog.6 mph94%30.45 "Hg2 mi
1:50 AM48 °FFog.7 mph94%30.45 "Hg2 mi
1:20 AM46 °FFog.9 mph93%30.45 "Hg2 mi
12:50 AM46 °FFog.8 mph93%30.45 "Hg2 mi
12:20 AM48 °FFog.8 mph87%30.45 "Hg2 mi
11:50 PM
Wed, Oct 26
48 °FFog.8 mph87%30.45 "Hg2 mi
11:20 PM48 °FFog.8 mph87%30.45 "Hg2 mi
10:50 PM48 °FFog.8 mph87%30.45 "Hg2 mi
10:20 PM48 °FFog.7 mph87%30.45 "Hg2 mi
9:50 PM46 °FFog.7 mph93%30.45 "Hg3 mi
9:20 PM46 °FClear.6 mph93%30.42 "Hg4 mi
8:50 PM46 °FClear.6 mph87%30.42 "Hg4 mi
8:20 PM46 °FClear.6 mph93%30.42 "Hg4 mi
7:50 PM48 °FClear.5 mph87%30.39 "Hg4 mi
7:20 PM48 °FClear.3 mph87%30.39 "Hg4 mi
6:50 PM50 °FClear.1 mph88%30.39 "Hg4 mi
6:20 PM54 °FClear.1 mph72%30.39 "Hg4 mi
5:50 PM55 °FPassing clouds.2 mph67%30.39 "Hg4 mi
5:20 PM57 °FPassing clouds.1 mph67%30.39 "Hg4 mi
4:50 PM57 °FPassing clouds.1 mph63%30.39 "Hg4 mi
4:20 PM57 °FPassing clouds.2 mph63%30.39 "Hg4 mi
3:50 PM57 °FPassing clouds.2 mph63%30.39 "Hg4 mi
3:20 PM57 °FPassing clouds.3 mph63%30.39 "Hg4 mi
Weather by CustomWeather, © 2016

See weather overviewHow to use our weather pages